Temperature
25 23 23 23 23 24 24 24 24 24 24 23 22 22 21 21 21 21 21 21 21 21 21 21 21 20 20 20 20 20 20 19 19 19 19 18 18 18 18 18 18 18 18 18
23 23 24 24 24 24 24 24 24 24 24 24 22 22 21 21 21 21 21 21 21 21 21 21 21 21 20 20 20 20 20 19 19 19 19 19 18 18 18 18 18 18 18 18
24 24 25 25 24 24 24 24 24 24 24 23 23 22 22 21 22 22 22 22 22 22 22 22 21 21 21 21 20 20 20 20 19 19 19 19 19 18 18 18 18 18 18 18
24 24 25 25 24 24 24 24 24 24 23 21 23 21 21 21 21 21 22 21 22 22 22 22 22 21 21 21 21 20 20 20 20 19 19 19 19 19 19 18 18 18 18 18
24 25 25 25 25 25 24 24 24 23 22 21 21 21 21 21 21 21 21 22 22 22 22 22 22 22 22 21 21 21 20 20 20 19 19 19 19 19 19 18 18 18 18 18
24 25 25 25 25 25 24 23 22 20 20 21 21 21 21 20 21 21 22 22 22 22 22 23 23 22 22 21 21 21 20 20 20 20 19 19 19 19 19 19 19 19 18 18
24 25 25 25 25 24 23 21 21 21 20 20 21 21 21 22 21 22 22 23 23 23 23 23 23 22 22 22 21 21 21 21 20 20 20 19 19 19 19 19 19 19 19 18
23 23 24 25 24 23 22 22 21 22 21 20 21 21 22 22 22 23 23 23 23 23 23 23 23 23 23 22 22 21 21 21 21 20 20 20 19 19 19 19 19 19 19 18
22 23 24 24 24 23 22 21 21 19 20 20 20 21 21 22 22 22 22 23 23 23 23 23 23 23 23 23 22 22 22 21 21 21 20 20 20 20 19 19 19 19 19 18
21 23 23 24 24 22 22 19 18 19 20 21 22 21 21 23 22 22 21 22 23 23 23 23 23 23 23 23 23 22 22 22 21 21 21 20 20 20 20 19 19 19 19 18
21 22 22 23 23 23 21 20 18 17 18 19 21 21 22 22 22 21 21 23 23 24 23 23 23 23 23 23 23 22 22 22 21 21 21 21 20 20 20 20 20 19 19 19
19 18 20 22 22 22 22 20 18 20 19 18 19 20 22 21 21 21 22 23 24 24 24 23 23 23 23 23 23 22 22 22 22 21 21 21 21 20 20 20 20 19 19 19
19 18 20 21 21 21 22 20 19 17 17 17 19 21 22 21 21 22 23 23 24 24 23 23 23 23 23 23 23 23 22 22 22 21 21 21 21 20 20 20 20 19 19 19
18 17 19 21 21 21 21 21 19 19 18 18 19 21 21 21 21 21 23 24 24 23 23 23 23 23 23 23 23 23 23 22 22 22 21 21 21 21 20 20 20 19 19 19
17 18 19 19 20 21 22 22 21 20 19 20 20 20 21 21 20 22 23 23 23 23 23 23 23 23 23 23 23 23 23 22 22 22 21 21 21 20 20 20 19 19 19 19
15 18 19 20 20 21 21 21 21 21 20 20 21 20 20 20 21 22 22 22 22 23 23 23 23 23 23 22 22 22 22 22 22 21 21 21 21 20 20 20 19 19 19 18
15 17 18 18 19 21 21 21 21 20 20 20 20 20 19 19 20 21 22 22 22 23 23 23 23 23 23 22 22 22 22 22 21 21 21 21 20 20 20 19 19 19 19 18
15 14 14 16 19 20 20 20 20 20 20 19 19 19 18 19 20 21 22 22 22 22 23 23 23 23 23 22 22 22 21 21 21 21 21 20 20 20 20 19 19 19 18 18
13 14 14 15 17 18 20 20 20 20 19 18 18 18 19 19 20 20 21 21 22 22 22 23 23 23 22 22 22 21 21 21 21 20 20 20 20 19 19 19 19 18 18 18
13 13 14 14 17 18 19 20 20 19 19 18 18 17 18 18 18 19 21 21 22 22 22 22 22 22 22 21 21 21 21 21 21 20 20 20 19 19 19 18 18 18 18 17
14 14 14 15 16 17 17 18 20 19 18 18 18 18 17 17 18 19 20 21 21 22 22 22 22 22 22 21 21 21 21 20 20 20 20 19 19 19 18 18 18 17 17 17
14 14 13 13 16 17 17 18 17 17 18 18 18 18 18 18 18 19 20 20 21 21 22 22 22 22 21 21 21 21 20 20 20 19 19 19 19 18 18 18 17 17 17 17
13 13 13 13 15 15 16 17 18 18 18 18 18 18 18 18 19 19 20 20 20 21 21 21 21 21 21 21 21 21 20 20 20 19 19 19 18 18 18 17 17 16 16 16
13 12 12 13 14 15 16 17 18 18 18 18 19 19 19 18 19 19 19 20 20 20 20 20 20 20 21 21 20 20 20 20 19 19 19 18 18 18 17 17 16 16 16 16
12 12 12 13 13 15 16 17 17 17 18 18 18 19 19 19 19 19 19 19 19 19 20 20 20 20 20 20 20 20 20 19 19 19 18 18 18 17 17 16 16 16 16 16
11 12 12 13 14 13 15 16 17 17 17 17 18 18 18 18 18 18 18 18 19 19 19 19 19 20 20 20 20 20 19 19 19 18 18 18 17 17 17 16 16 15 15 15
Wind_Speed
4 5 4 7 8 5 5 5 3 4 3 5 4 4 5 8 8 8 7 7 8 9 6 5 6 6 6 6 6 6 5 4 4 3 2 2 1 1 1 1 2 2 2 3
5 2 6 5 5 4 5 4 2 1 2 4 3 3 5 9 11 11 10 10 9 7 5 6 6 6 6 7 7 6 6 5 5 4 3 2 2 1 1 1 1 2 2 3
6 5 4 5 4 4 3 5 5 4 2 3 2 3 3 5 5 6 7 7 7 9 10 9 8 8 7 7 8 8 6 6 5 4 3 2 2 2 1 1 1 1 2 3
4 4 4 4 4 6 3 4 5 5 4 1 2 2 5 3 5 8 9 9 10 10 9 9 10 9 9 9 7 6 6 6 5 5 4 4 3 2 2 2 1 1 1 2
4 3 4 4 5 7 5 3 4 4 4 2 2 1 7 1 5 10 11 11 11 11 11 11 12 11 10 9 8 7 6 6 5 5 6 5 3 3 1 1 1 1 1 1
4 2 3 4 2 5 6 7 7 6 5 0 3 3 6 4 7 8 10 11 11 11 11 11 10 8 7 7 7 6 6 6 6 6 5 5 5 3 2 2 2 1 1 1
3 2 1 3 4 3 6 6 4 3 3 5 3 3 7 7 7 9 9 10 10 11 11 10 10 10 9 9 8 7 8 7 6 6 6 6 6 5 5 4 3 2 2 2
2 5 3 3 6 6 5 8 7 6 5 4 1 5 7 6 5 5 6 6 7 9 10 11 11 11 10 10 9 9 8 8 7 7 7 6 6 5 4 4 4 4 3 3
6 5 3 1 2 8 6 4 6 7 3 1 4 6 8 3 2 2 3 4 7 9 10 10 10 10 10 10 10 10 9 8 7 7 6 5 6 5 5 4 4 3 3 3
7 3 4 2 4 3 6 8 6 6 5 2 4 4 5 5 5 4 4 6 7 7 8 8 9 9 9 10 9 9 9 9 7 7 7 7 6 6 5 4 5 4 4 3
4 4 3 3 3 5 4 5 6 5 5 6 3 7 6 8 7 7 8 7 7 7 8 8 8 8 8 7 8 8 8 8 7 8 7 7 6 6 5 5 5 5 4 3
3 5 1 5 4 2 5 7 8 6 4 5 5 7 6 6 6 7 8 7 6 6 6 6 7 7 7 8 8 8 8 8 8 7 7 7 6 5 5 5 5 4 4 3
4 6 3 5 5 3 2 3 5 7 6 5 5 7 3 1 3 6 7 6 5 4 4 4 5 6 7 7 8 8 8 9 8 7 7 7 6 6 6 6 5 4 4 3
5 5 6 7 6 3 1 2 4 6 5 5 7 7 6 4 5 5 5 5 5 4 5 5 5 6 6 7 7 7 7 7 7 7 7 7 7 7 6 5 4 4 4 4
5 4 2 3 3 3 2 3 4 5 7 8 8 8 9 7 6 6 5 4 4 4 5 5 6 6 5 5 6 6 6 6 6 6 6 7 6 5 5 4 4 4 3 4
4 4 2 2 2 1 1 2 4 4 3 4 3 6 6 4 2 2 4 5 5 5 5 6 6 6 6 7 6 5 5 5 5 6 6 5 4 4 5 5 5 4 4 3
2 4 3 1 3 3 3 4 4 3 2 4 5 6 3 2 2 3 4 5 6 6 6 7 7 7 7 7 6 6 5 5 5 5 5 4 4 5 5 4 4 5 5 4
4 4 3 1 2 4 7 2 2 3 1 1 2 3 2 3 3 1 1 4 4 4 4 5 5 5 5 5 5 5 5 5 5 5 4 4 4 4 3 4 4 4 4 4
4 6 4 3 3 4 5 1 1 2 1 1 1 2 2 2 3 4 2 1 3 4 4 4 5 4 4 4 5 5 5 5 5 5 5 4 5 4 4 4 4 3 3 3
4 4 5 4 4 6 6 4 3 3 2 3 1 1 2 4 2 3 4 3 1 1 2 2 3 3 3 3 5 6 5 5 6 6 5 5 4 5 5 4 4 2 3 3
3 3 3 4 4 6 5 6 1 4 5 2 0 1 1 1 3 4 4 2 1 0 0 2 4 4 3 4 5 6 5 6 6 5 4 4 4 4 4 4 3 3 2 2
4 4 3 4 4 6 4 2 3 4 2 1 1 0 1 1 2 3 2 2 2 3 3 2 2 3 3 4 6 5 6 5 4 4 4 4 4 4 3 4 3 3 3 3
4 5 5 6 6 4 3 3 3 2 1 1 1 1 1 1 2 3 3 2 2 2 2 1 1 2 3 4 5 6 6 5 5 5 5 4 4 4 4 5 4 3 3 3
2 1 2 1 4 5 4 3 2 1 1 2 1 0 0 1 2 2 3 2 2 2 1 1 1 2 2 4 5 6 5 5 6 5 4 4 4 3 3 3 4 4 4 4
4 1 1 3 4 4 4 4 4 3 3 2 3 2 0 1 1 2 3 3 2 2 1 0 1 3 4 4 4 4 5 6 5 5 5 4 4 5 4 3 3 5 5 6
4 5 5 6 6 4 5 5 4 3 3 2 3 3 3 1 1 2 3 3 2 2 2 2 2 3 4 4 4 4 5 6 6 5 5 4 4 4 4 3 1 2 3 5
Wind_Direction
40 82 169 200 189 176 162 160 185 225 194 156 200 214 193 184 187 194 200 203 209 215 208 186 181 174 171 173 171 171 169 170 150 144 152 154 197 243 262 240 220 204 194 177
45 250 220 176 147 123 145 154 176 300 140 157 195 240 203 191 200 202 202 207 209 207 192 189 182 176 179 182 182 180 183 181 177 175 169 165 162 192 223 263 245 221 205 196
182 230 165 134 140 138 170 180 188 178 80 60 95 331 218 212 207 209 208 207 204 206 201 196 189 189 185 188 189 192 191 188 186 172 133 107 78 47 29 328 286 263 221 211
213 235 163 155 183 159 222 211 169 148 120 311 107 276 285 225 213 217 215 208 209 209 202 195 190 191 193 197 191 189 186 184 183 169 163 164 172 195 224 226 242 280 246 225
229 186 157 184 201 166 192 128 117 122 126 65 36 157 290 198 228 232 223 215 209 201 195 194 196 197 196 192 187 186 180 184 182 175 178 175 189 208 223 222 254 286 302 273
235 224 190 189 152 147 128 77 61 53 75 336 242 173 279 229 222 235 226 219 212 199 196 197 196 192 194 188 185 182 180 190 186 182 182 181 190 199 198 216 232 252 275 283
326 311 251 148 105 74 105 99 56 15 15 248 249 193 249 247 227 222 221 218 209 196 194 196 190 191 194 190 188 182 181 195 191 186 191 194 197 196 201 210 217 226 242 250
171 281 244 181 168 167 166 144 158 185 208 263 286 227 251 258 251 229 219 213 197 194 196 199 198 196 195 193 189 185 187 196 194 194 201 201 198 198 207 206 211 219 227 237
175 244 291 238 158 140 138 162 158 133 142 164 274 283 302 296 294 232 210 197 202 202 200 200 197 195 193 192 192 190 190 195 196 198 199 202 204 203 209 210 211 223 227 227
159 211 296 298 82 47 142 144 109 121 144 218 283 271 248 253 242 238 229 217 216 207 203 200 194 195 195 193 190 186 188 195 199 197 202 212 211 212 209 205 215 221 223 226
124 153 313 19 169 184 124 108 112 115 143 155 221 265 229 220 218 214 224 224 218 210 205 200 195 193 188 182 182 185 192 194 197 201 205 211 209 206 204 210 218 217 220 223
124 123 238 272 282 204 158 162 147 151 192 169 172 259 267 228 221 210 219 226 222 211 205 197 189 183 181 186 187 190 195 198 206 202 200 209 208 201 204 215 221 216 217 222
125 111 79 343 341 12 87 142 141 125 123 153 170 253 288 276 238 225 220 222 217 203 189 176 173 182 187 191 191 195 198 202 202 193 196 205 207 204 210 215 216 211 211 214
117 104 157 194 218 213 220 187 155 130 149 186 213 239 279 274 260 250 233 218 201 192 178 174 180 190 192 192 193 198 204 200 193 189 196 203 208 207 209 207 205 205 204 206
89 114 182 236 245 205 214 211 183 183 181 182 217 220 242 243 242 240 223 202 185 185 178 181 187 189 186 187 191 192 196 193 188 185 197 208 206 199 197 197 201 203 206 216
61 114 82 336 333 360 290 250 202 210 186 203 208 248 255 268 256 242 204 179 185 192 189 186 184 179 183 188 189 186 188 184 175 184 201 201 194 194 197 201 197 195 203 209
69 108 101 249 307 34 285 249 204 206 212 176 208 246 288 299 271 232 218 190 191 199 194 188 187 186 189 189 181 183 187 171 172 188 196 191 188 194 201 201 194 201 207 204
138 116 128 147 92 213 240 263 174 164 154 264 252 278 261 243 258 270 194 181 200 211 208 200 191 187 187 181 175 174 163 168 178 186 191 189 187 192 191 192 203 208 204 198
153 140 127 129 170 266 292 295 161 156 259 341 305 322 337 353 27 6 360 188 219 219 210 201 191 183 170 168 167 153 156 164 173 187 195 192 188 188 191 200 205 199 189 200
73 100 119 129 155 221 243 288 292 131 256 322 355 332 8 60 68 290 315 312 274 243 205 176 155 140 145 166 150 151 170 175 190 201 202 195 189 190 193 197 192 179 176 193
66 62 123 157 201 254 270 300 30 156 241 287 352 342 65 118 228 266 301 309 279 130 118 143 136 141 165 162 151 166 178 195 204 193 181 179 184 189 186 177 172 164 172 181
164 154 173 156 187 246 305 34 152 215 253 164 170 196 162 266 320 329 333 325 2 32 41 80 127 153 159 155 158 176 195 205 182 168 169 175 178 183 181 167 170 168 172 184
193 192 187 188 211 251 292 249 253 223 203 235 220 259 195 3 347 340 336 342 7 30 34 52 138 151 155 171 175 186 204 184 166 167 178 178 172 175 174 173 178 178 183 194
278 142 140 260 273 283 299 293 304 282 248 260 241 246 135 15 325 335 336 335 351 355 14 27 97 157 187 195 199 200 190 175 168 177 189 181 171 174 180 189 188 189 198 203
228 183 171 255 274 312 308 303 311 333 351 360 350 336 282 121 322 324 323 311 304 310 324 304 214 213 220 214 210 198 178 168 173 182 192 190 184 186 190 200 202 200 209 204
208 190 191 229 233 225 257 280 295 315 318 319 339 342 336 316 310 328 313 300 295 302 304 276 254 238 230 217 219 208 180 170 174 187 194 195 192 192 192 194 223 265 236 222
Height
1488 1494 1502 1500 1498 1500 1505 1511 1514 1510 1504 1508 1513 1513 1513 1514 1515 1517 1518 1519 1521 1523 1525 1528 1530 1532 1533 1535 1536 1538 1539 1541 1542 1543 1543 1544 1545 1546 1546 1546 1546 1547 1547 1547
1495 1498 1492 1492 1495 1498 1503 1510 1512 1508 1503 1508 1513 1513 1510 1511 1512 1513 1515 1516 1518 1521 1524 1526 1528 1530 1532 1534 1535 1537 1538 1540 1541 1542 1543 1544 1545 1545 1546 1546 1546 1547 1547 1547
1495 1493 1489 1492 1497 1501 1504 1508 1509 1510 1507 1508 1512 1517 1513 1510 1512 1513 1514 1515 1516 1518 1520 1523 1526 1528 1530 1532 1534 1536 1537 1539 1540 1541 1543 1543 1544 1545 1545 1546 1546 1546 1546 1546
1491 1488 1489 1493 1496 1498 1507 1500 1502 1506 1515 1524 1518 1534 1517 1512 1511 1510 1511 1512 1513 1515 1518 1520 1523 1525 1528 1530 1533 1534 1536 1538 1539 1540 1541 1542 1543 1543 1544 1545 1545 1546 1546 1546
1490 1487 1488 1493 1492 1493 1498 1496 1501 1507 1516 1525 1523 1531 1524 1513 1513 1508 1506 1507 1508 1511 1514 1516 1519 1522 1525 1528 1530 1532 1534 1536 1538 1539 1540 1541 1542 1543 1544 1544 1544 1545 1545 1545
1485 1483 1484 1486 1487 1489 1493 1501 1508 1516 1524 1537 1527 1532 1527 1515 1508 1502 1501 1502 1504 1507 1510 1513 1516 1520 1523 1525 1528 1530 1532 1534 1536 1537 1538 1539 1540 1541 1542 1543 1543 1543 1544 1544
1490 1486 1483 1483 1489 1492 1496 1514 1533 1537 1545 1541 1525 1528 1522 1502 1497 1496 1496 1497 1500 1503 1506 1510 1513 1516 1519 1522 1525 1527 1530 1532 1534 1535 1537 1538 1539 1540 1540 1541 1542 1542 1542 1542
1501 1502 1485 1482 1487 1495 1499 1508 1531 1543 1546 1539 1526 1526 1510 1495 1492 1492 1493 1495 1498 1501 1503 1506 1509 1513 1516 1520 1523 1525 1527 1530 1532 1533 1535 1536 1537 1538 1539 1540 1540 1540 1541 1541
1500 1499 1483 1481 1481 1487 1500 1507 1508 1526 1533 1538 1531 1519 1504 1492 1491 1491 1492 1494 1496 1498 1500 1503 1507 1510 1514 1517 1520 1523 1525 1527 1529 1531 1533 1534 1536 1536 1537 1538 1539 1539 1539 1539
1489 1497 1486 1482 1482 1487 1490 1500 1515 1527 1540 1543 1531 1524 1515 1497 1493 1491 1491 1492 1493 1495 1498 1501 1504 1507 1510 1514 1517 1520 1522 1525 1527 1529 1530 1532 1533 1534 1535 1536 1536 1537 1537 1538
1485 1496 1493 1488 1489 1493 1497 1503 1512 1524 1527 1539 1541 1526 1495 1492 1489 1489 1489 1490 1491 1493 1495 1498 1501 1504 1507 1511 1513 1516 1519 1522 1524 1526 1528 1529 1531 1532 1533 1534 1534 1535 1535 1536
1487 1497 1503 1494 1486 1484 1487 1495 1505 1517 1526 1530 1533 1522 1485 1485 1485 1485 1486 1487 1489 1491 1494 1496 1498 1502 1505 1507 1510 1513 1516 1518 1521 1523 1525 1527 1528 1529 1530 1531 1532 1532 1533 1533
1486 1498 1509 1506 1500 1491 1491 1493 1498 1507 1520 1529 1529 1514 1484 1484 1483 1484 1484 1486 1487 1490 1492 1494 1497 1499 1502 1504 1507 1510 1513 1515 1518 1520 1522 1524 1525 1526 1527 1528 1529 1530 1530 1530
1482 1497 1505 1511 1504 1496 1494 1493 1496 1502 1516 1520 1516 1503 1489 1485 1483 1482 1483 1484 1486 1488 1490 1493 1495 1497 1500 1502 1505 1507 1510 1512 1515 1517 1519 1520 1522 1523 1524 1525 1526 1527 1527 1527
1483 1496 1495 1495 1491 1490 1490 1490 1492 1495 1499 1505 1500 1498 1488 1483 1481 1481 1481 1483 1485 1487 1489 1491 1493 1495 1498 1500 1502 1504 1507 1509 1512 1513 1515 1516 1518 1520 1521 1522 1522 1523 1524 1524
1488 1494 1494 1495 1490 1489 1490 1488 1489 1490 1491 1493 1492 1491 1480 1480 1479 1479 1480 1481 1483 1485 1487 1489 1491 1493 1495 1497 1499 1502 1504 1507 1508 1510 1512 1514 1515 1516 1517 1518 1519 1520 1520 1521
1493 1495 1501 1503 1495 1490 1498 1490 1488 1489 1488 1489 1492 1487 1480 1479 1479 1478 1479 1480 1481 1483 1485 1487 1489 1490 1493 1495 1497 1499 1502 1504 1506 1507 1509 1510 1511 1513 1514 1515 1516 1516 1517 1517
1493 1499 1506 1507 1500 1507 1495 1482 1482 1485 1486 1485 1484 1482 1480 1479 1477 1477 1478 1480 1481 1483 1484 1485 1487 1489 1491 1493 1496 1498 1500 1502 1503 1505 1506 1507 1508 1509 1510 1512 1512 1513 1513 1514
1489 1496 1505 1511 1509 1503 1490 1482 1483 1486 1488 1484 1483 1481 1480 1478 1478 1478 1479 1479 1480 1481 1483 1484 1486 1487 1489 1492 1494 1495 1497 1499 1500 1502 1503 1504 1505 1506 1507 1508 1509 1510 1511 1511
1490 1493 1503 1509 1509 1510 1492 1480 1478 1483 1490 1483 1482 1481 1480 1479 1484 1482 1479 1479 1479 1481 1482 1483 1484 1486 1488 1490 1491 1493 1495 1496 1497 1499 1500 1502 1503 1504 1505 1506 1507 1507 1508 1508
1497 1500 1504 1507 1506 1499 1485 1479 1478 1492 1491 1482 1481 1481 1481 1482 1483 1481 1479 1479 1479 1480 1481 1482 1483 1484 1486 1488 1490 1491 1493 1494 1495 1497 1498 1499 1500 1501 1502 1503 1504 1504 1505 1505
1497 1502 1505 1507 1506 1500 1482 1480 1484 1485 1481 1481 1481 1481 1481 1480 1480 1479 1479 1478 1478 1478 1479 1480 1482 1483 1485 1486 1488 1489 1490 1492 1494 1495 1495 1497 1498 1499 1500 1501 1501 1502 1502 1502
1494 1494 1495 1496 1495 1486 1482 1481 1481 1480 1480 1480 1480 1480 1480 1479 1479 1479 1478 1478 1478 1478 1479 1479 1480 1481 1483 1485 1486 1487 1489 1490 1491 1492 1493 1494 1495 1496 1497 1498 1498 1499 1499 1499
1490 1489 1491 1491 1486 1483 1481 1479 1479 1479 1479 1479 1480 1480 1479 1478 1479 1478 1478 1477 1477 1478 1478 1478 1479 1480 1481 1483 1485 1486 1487 1488 1488 1489 1490 1491 1492 1492 1494 1495 1495 1495 1495 1495
1489 1488 1489 1488 1484 1481 1480 1479 1479 1479 1479 1479 1478 1479 1478 1477 1477 1477 1477 1477 1477 1477 1477 1478 1478 1478 1479 1481 1482 1483 1484 1485 1485 1487 1488 1488 1489 1490 1491 1491 1491 1491 1492 1492
1484 1485 1487 1485 1481 1481 1479 1478 1478 1477 1477 1477 1477 1477 1477 1476 1476 1476 1476 1476 1476 1476 1476 1476 1476 1476 1477 1478 1479 1480 1481 1482 1483 1483 1484 1485 1485 1486 1487 1487 1488 1488 1489 1489